Погода в Приморском

Россия / Ульяновская область     54°03′18″N   49°27′38″E
темп.,
°C
ветер,
м/с
пор.,
м/с
влажн.,
%
обл.,
%
осадки,
мм/ч
давл.,
гПа
погр.,
м
27 января, ср
ср2701:00−4ю51192100 0.0 1025379
04:00−4ю51194100 0.1 1025428
07:00−3ю51193100 0.1 1025438
10:00−3ююв71291100 0.1 1025403
13:00−4ю61392100 0.0 1025466
16:00−4ю51292100 0.0 1023460
19:00−5ю61390100 0.0 1023420
22:00−6ю61490100 0.0 1022447
28 января, чт
чт2801:00−5ю71592100 0.0 1023460
04:00−4ю61391100 0.0 1022435
07:00−6ю61188100 0.0 1020350
10:00−7ю51089100 0.0 1021331
13:00−5ююв51090100 0.0 1020370
16:00−5ююв4892100 0.0 1019291
19:00−8юв4793100 0.0 1019154
22:00−10ююв4794100 0.0 1018121
29 января, пт
пт2901:00−9юв3494100 0.0 101888
04:00−8вюв4794100 0.0 1016174
07:00−9вюв3694100 0.0 1014141
10:00−7юв4993100 0.0 1012313
13:00−5юв5892100 0.1 1011407
16:00−4юв4895100 0.4 1008441
19:00−5ююв41092100 0.6 1008291
22:00−6ю4109483 0.7 1008204
30 января, сб
сб3001:00−4ю5119694 0.0 1008408
04:00−3ю5129497 0.0 1007360
07:00−3ю6119489 0.0 1007524
10:00−3ююв7149195 0.0 1005460
13:000ю101794100 0.2 10031037
16:000ююз101796100 1.6 10031080
19:00−4ююз6148162 0.1 1006346
22:00−7ююз5118631 0.1 1008214
31 января, вс
вс3101:00−8ююз479352 0.0 1009117
04:00−5ю489677 0.0 1009182
07:00−2ююв4997100 0.2 1008263
10:00+1ю81499100 0.5 1008519
13:00+1ю81693100 0.1 1008624
16:000ю81777100 0.1 1008608
19:00−1ю81781100 0.0 1007665
22:00−1ююз91796100 1.1 1007616